{"data":{"norad_id":85431,"intl_designator":"","name":"UNKNOWN","alt_names":[],"object_type":"UNKNOWN","status":"UNKNOWN","operator":null,"country":null,"launch_date":null,"launch_site_code":null,"launch_vehicle":null,"mission":null,"orbit_class":"UNKNOWN","rcs_meters":null,"size_class":null,"mass_kg":null,"dimensions":null,"purposes":[],"wikipedia_slug":null,"has_3d_model":false,"image_url":null,"decayed_at":null,"tle_current":{"epoch":"2026-04-27T07:12:59.999616Z","epoch_age_seconds":2478852,"freshness":"OLD","line1":"1 85431U          26117.30069444 -.00000020  00000+0  00000+0 0  9999","line2":"2 85431  54.9033 209.3556 1645252 271.1559 152.0193  2.51857907    18","mean_motion":2.51857907,"eccentricity":0.1645252,"inclination_deg":54.9033,"raan_deg":209.3556,"arg_perigee_deg":271.1559,"mean_anomaly_deg":152.0193,"bstar":0,"rev_number":1,"period_min":571.75095955991,"perigee_km":12686.628586592,"apogee_km":20195.25570757,"semimajor_km":22819.079147081,"source":"CELESTRAK","updated_at":"2026-05-25T13:38:11.433857Z"}}}